PRIVATE WETTERSTATION BILLIGHEIM-ALLFELD                       ZURCK
Wetterdaten: Dienstag, 16.09.2014
Datum Zeit Temp. A. Temp. A. min Temp. A. max Feuchte A. Luftdruck Regen Wind Richtung Richtung Sonnenschein ET Solar Taupunkt Windchill Windben Empfang
16.09.2014 00:00 13,5 C 13,5 C 13,8 C 90 % 1014,8 hPa 0,0 l/m 0,0 km/h (0 Bft) NO 45 0 min 0,000 mm 0 W/m 11,9 C 13,5 C 1,6 km/h (1 Bft) 99 %
16.09.2014 00:10 13,4 C 13,4 C 13,5 C 90 % 1014,8 hPa 0,0 l/m 0,0 km/h (0 Bft) NO 45 0 min 0,000 mm 0 W/m 11,8 C 13,4 C 1,6 km/h (1 Bft) 100 %
16.09.2014 00:20 13,4 C 13,4 C 13,4 C 90 % 1014,8 hPa 0,0 l/m 0,0 km/h (0 Bft) NO 45 0 min 0,000 mm 0 W/m 11,8 C 13,4 C 3,2 km/h (1 Bft) 100 %
16.09.2014 00:30 13,2 C 13,2 C 13,4 C 90 % 1014,8 hPa 0,0 l/m 0,0 km/h (0 Bft) NO 45 0 min 0,000 mm 0 W/m 11,6 C 13,2 C 1,6 km/h (1 Bft) 100 %
16.09.2014 00:40 13,1 C 13,1 C 13,2 C 90 % 1014,7 hPa 0,0 l/m 0,0 km/h (0 Bft) NO 45 0 min 0,000 mm 0 W/m 11,5 C 13,1 C 3,2 km/h (1 Bft) 100 %
16.09.2014 00:50 12,9 C 12,9 C 13,1 C 90 % 1014,8 hPa 0,0 l/m 0,0 km/h (0 Bft) NO 45 0 min 0,000 mm 0 W/m 11,3 C 12,9 C 1,6 km/h (1 Bft) 100 %
16.09.2014 01:00 12,9 C 12,9 C 13,0 C 90 % 1014,7 hPa 0,0 l/m 0,0 km/h (0 Bft) NO 45 0 min 0,000 mm 0 W/m 11,3 C 12,9 C 1,6 km/h (1 Bft) 99 %
16.09.2014 01:10 12,8 C 12,8 C 12,9 C 90 % 1014,6 hPa 0,0 l/m 0,0 km/h (0 Bft) NO 45 0 min 0,000 mm 0 W/m 11,2 C 12,8 C 3,2 km/h (1 Bft) 100 %
16.09.2014 01:20 12,7 C 12,7 C 12,8 C 90 % 1014,7 hPa 0,0 l/m 0,0 km/h (0 Bft) N 0 0 min 0,000 mm 0 W/m 11,1 C 12,7 C 0,0 km/h (0 Bft) 100 %
16.09.2014 01:30 12,6 C 12,6 C 12,7 C 90 % 1014,7 hPa 0,0 l/m 0,0 km/h (0 Bft) NO 45 0 min 0,000 mm 0 W/m 11,0 C 12,6 C 1,6 km/h (1 Bft) 99 %
16.09.2014 01:40 12,5 C 12,5 C 12,6 C 90 % 1014,8 hPa 0,0 l/m 0,0 km/h (0 Bft) NO 45 0 min 0,000 mm 0 W/m 10,9 C 12,5 C 3,2 km/h (1 Bft) 100 %
16.09.2014 01:50 12,4 C 12,4 C 12,5 C 90 % 1014,7 hPa 0,0 l/m 0,0 km/h (0 Bft) NO 45 0 min 0,000 mm 0 W/m 10,8 C 12,4 C 1,6 km/h (1 Bft) 100 %
16.09.2014 02:00 12,3 C 12,3 C 12,4 C 90 % 1014,7 hPa 0,0 l/m 0,0 km/h (0 Bft) NO 45 0 min 0,000 mm 0 W/m 10,7 C 12,3 C 1,6 km/h (1 Bft) 100 %
16.09.2014 02:10 12,3 C 12,3 C 12,3 C 90 % 1014,7 hPa 0,0 l/m 0,0 km/h (0 Bft) NO 45 0 min 0,000 mm 0 W/m 10,7 C 12,3 C 1,6 km/h (1 Bft) 100 %
16.09.2014 02:20 12,1 C 12,1 C 12,3 C 90 % 1014,6 hPa 0,0 l/m 0,0 km/h (0 Bft) NO 45 0 min 0,000 mm 0 W/m 10,5 C 12,1 C 3,2 km/h (1 Bft) 100 %
16.09.2014 02:30 12,0 C 12,0 C 12,1 C 90 % 1014,6 hPa 0,0 l/m 0,0 km/h (0 Bft) N-NO 22 0 min 0,000 mm 0 W/m 10,4 C 12,0 C 3,2 km/h (1 Bft) 99 %
16.09.2014 02:40 11,9 C 11,9 C 12,0 C 90 % 1014,6 hPa 0,0 l/m 0,0 km/h (0 Bft) N-NO 22 0 min 0,000 mm 0 W/m 10,3 C 11,9 C 3,2 km/h (1 Bft) 99 %
16.09.2014 02:50 11,8 C 11,8 C 11,9 C 90 % 1014,6 hPa 0,0 l/m 1,6 km/h (1 Bft) NW 315 0 min 0,000 mm 0 W/m 10,2 C 11,8 C 4,8 km/h (1 Bft) 100 %
16.09.2014 03:00 11,7 C 11,7 C 11,8 C 90 % 1014,5 hPa 0,0 l/m 0,0 km/h (0 Bft) N-NW 337 0 min 0,000 mm 0 W/m 10,1 C 11,7 C 3,2 km/h (1 Bft) 99 %
16.09.2014 03:10 11,6 C 11,6 C 11,7 C 90 % 1014,6 hPa 0,0 l/m 0,0 km/h (0 Bft) N-NW 337 0 min 0,000 mm 0 W/m 10,0 C 11,6 C 1,6 km/h (1 Bft) 100 %
16.09.2014 03:20 11,6 C 11,6 C 11,7 C 90 % 1014,4 hPa 0,0 l/m 1,6 km/h (1 Bft) NW 315 0 min 0,000 mm 0 W/m 10,0 C 11,6 C 4,8 km/h (1 Bft) 100 %
16.09.2014 03:30 11,6 C 11,6 C 11,6 C 90 % 1014,4 hPa 0,0 l/m 0,0 km/h (0 Bft) NW 315 0 min 0,000 mm 0 W/m 10,0 C 11,6 C 4,8 km/h (1 Bft) 98 %
16.09.2014 03:40 11,6 C 11,6 C 11,6 C 90 % 1014,4 hPa 0,0 l/m 0,0 km/h (0 Bft) N-NW 337 0 min 0,000 mm 0 W/m 10,0 C 11,6 C 1,6 km/h (1 Bft) 99 %
16.09.2014 03:50 11,5 C 11,5 C 11,6 C 90 % 1014,5 hPa 0,0 l/m 0,0 km/h (0 Bft) W-NW 292 0 min 0,000 mm 0 W/m 9,9 C 11,5 C 4,8 km/h (1 Bft) 98 %
16.09.2014 04:00 11,4 C 11,4 C 11,5 C 90 % 1014,5 hPa 0,0 l/m 1,6 km/h (1 Bft) W-NW 292 0 min 0,000 mm 0 W/m 9,8 C 11,4 C 4,8 km/h (1 Bft) 99 %
16.09.2014 04:10 11,4 C 11,4 C 11,4 C 90 % 1014,5 hPa 0,0 l/m 0,0 km/h (0 Bft) W-NW 292 0 min 0,000 mm 0 W/m 9,8 C 11,4 C 1,6 km/h (1 Bft) 97 %
16.09.2014 04:20 11,4 C 11,4 C 11,4 C 90 % 1014,4 hPa 0,0 l/m 1,6 km/h (1 Bft) W-NW 292 0 min 0,000 mm 0 W/m 9,8 C 11,4 C 4,8 km/h (1 Bft) 98 %
16.09.2014 04:30 11,4 C 11,4 C 11,4 C 90 % 1014,3 hPa 0,0 l/m 0,0 km/h (0 Bft) W-NW 292 0 min 0,000 mm 0 W/m 9,8 C 11,4 C 1,6 km/h (1 Bft) 97 %
16.09.2014 04:40 11,5 C 11,4 C 11,5 C 90 % 1014,4 hPa 0,0 l/m 0,0 km/h (0 Bft) NW 315 0 min 0,000 mm 0 W/m 9,9 C 11,5 C 3,2 km/h (1 Bft) 98 %
16.09.2014 04:50 11,5 C 11,5 C 11,5 C 90 % 1014,4 hPa 0,0 l/m 0,0 km/h (0 Bft) N 360 0 min 0,000 mm 0 W/m 9,9 C 11,5 C 3,2 km/h (1 Bft) 97 %
16.09.2014 05:00 11,6 C 11,5 C 11,6 C 90 % 1014,5 hPa 0,0 l/m 0,0 km/h (0 Bft) NW 315 0 min 0,000 mm 0 W/m 10,0 C 11,6 C 4,8 km/h (1 Bft) 97 %
16.09.2014 05:10 11,6 C 11,6 C 11,6 C 90 % 1014,5 hPa 0,0 l/m 0,0 km/h (0 Bft) NW 315 0 min 0,000 mm 0 W/m 10,0 C 11,6 C 3,2 km/h (1 Bft) 97 %
16.09.2014 05:20 11,7 C 11,6 C 11,7 C 90 % 1014,6 hPa 0,0 l/m 1,6 km/h (1 Bft) NW 315 0 min 0,000 mm 0 W/m 10,1 C 11,7 C 6,4 km/h (2 Bft) 97 %
16.09.2014 05:30 11,7 C 11,7 C 11,7 C 90 % 1014,5 hPa 0,0 l/m 0,0 km/h (0 Bft) N-NW 337 0 min 0,000 mm 0 W/m 10,1 C 11,7 C 1,6 km/h (1 Bft) 98 %
16.09.2014 05:40 11,7 C 11,7 C 11,7 C 90 % 1014,5 hPa 0,0 l/m 0,0 km/h (0 Bft) N 0 0 min 0,000 mm 0 W/m 10,1 C 11,7 C 0,0 km/h (0 Bft) 98 %
16.09.2014 05:50 11,7 C 11,7 C 11,7 C 90 % 1014,4 hPa 0,0 l/m 0,0 km/h (0 Bft) N-NW 337 0 min 0,000 mm 0 W/m 10,1 C 11,7 C 1,6 km/h (1 Bft) 97 %
16.09.2014 06:00 11,7 C 11,7 C 11,7 C 90 % 1014,5 hPa 0,0 l/m 0,0 km/h (0 Bft) N-NW 337 0 min 0,000 mm 0 W/m 10,1 C 11,7 C 1,6 km/h (1 Bft) 89 %
16.09.2014 06:10 11,8 C 11,7 C 11,8 C 90 % 1014,5 hPa 0,0 l/m 0,0 km/h (0 Bft) N-NW 337 0 min 0,000 mm 0 W/m 10,2 C 11,8 C 3,2 km/h (1 Bft) 96 %
16.09.2014 06:20 11,7 C 11,7 C 11,8 C 90 % 1014,6 hPa 0,0 l/m 0,0 km/h (0 Bft) N 0 0 min 0,000 mm 0 W/m 10,1 C 11,7 C 0,0 km/h (0 Bft) 98 %
16.09.2014 06:30 11,8 C 11,7 C 11,8 C 90 % 1014,6 hPa 0,0 l/m 0,0 km/h (0 Bft) N-NW 337 0 min 0,000 mm 0 W/m 10,2 C 11,8 C 3,2 km/h (1 Bft) 97 %
16.09.2014 06:40 11,8 C 11,8 C 11,8 C 90 % 1014,8 hPa 0,0 l/m 0,0 km/h (0 Bft) N 0 0 min 0,000 mm 0 W/m 10,2 C 11,8 C 0,0 km/h (0 Bft) 97 %
16.09.2014 06:50 11,8 C 11,8 C 11,8 C 90 % 1014,8 hPa 0,0 l/m 0,0 km/h (0 Bft) N-NW 337 0 min 0,000 mm 0 W/m 10,2 C 11,8 C 3,2 km/h (1 Bft) 98 %
16.09.2014 07:00 11,7 C 11,7 C 11,8 C 90 % 1014,8 hPa 0,0 l/m 0,0 km/h (0 Bft) N-NW 337 0 min 0,000 mm 0 W/m 10,1 C 11,7 C 1,6 km/h (1 Bft) 97 %
16.09.2014 07:10 11,6 C 11,6 C 11,7 C 90 % 1014,8 hPa 0,0 l/m 0,0 km/h (0 Bft) N-NW 337 0 min 0,000 mm 5 W/m 10,0 C 11,6 C 1,6 km/h (1 Bft) 97 %
16.09.2014 07:20 11,4 C 11,4 C 11,6 C 90 % 1014,8 hPa 0,0 l/m 0,0 km/h (0 Bft) N-NW 337 0 min 0,000 mm 9 W/m 9,8 C 11,4 C 3,2 km/h (1 Bft) 97 %
16.09.2014 07:30 11,4 C 11,4 C 11,5 C 90 % 1014,8 hPa 0,0 l/m 0,0 km/h (0 Bft) N-NW 337 0 min 0,000 mm 19 W/m 9,8 C 11,4 C 3,2 km/h (1 Bft) 98 %
16.09.2014 07:40 11,4 C 11,4 C 11,4 C 90 % 1014,8 hPa 0,0 l/m 0,0 km/h (0 Bft) N-NW 337 0 min 0,000 mm 25 W/m 9,8 C 11,4 C 3,2 km/h (1 Bft) 97 %
16.09.2014 07:50 11,4 C 11,4 C 11,4 C 90 % 1014,9 hPa 0,0 l/m 0,0 km/h (0 Bft) N-NW 337 0 min 0,000 mm 30 W/m 9,8 C 11,4 C 4,8 km/h (1 Bft) 98 %
16.09.2014 08:00 11,4 C 11,4 C 11,4 C 90 % 1014,8 hPa 0,0 l/m 0,0 km/h (0 Bft) N-NW 337 0 min 0,000 mm 35 W/m 9,8 C 11,4 C 3,2 km/h (1 Bft) 98 %
16.09.2014 08:10 11,6 C 11,4 C 11,6 C 90 % 1014,8 hPa 0,0 l/m 0,0 km/h (0 Bft) N-NW 337 0 min 0,000 mm 40 W/m 10,0 C 11,6 C 3,2 km/h (1 Bft) 97 %
16.09.2014 08:20 11,8 C 11,6 C 11,8 C 90 % 1014,8 hPa 0,0 l/m 0,0 km/h (0 Bft) N 360 0 min 0,000 mm 93 W/m 10,2 C 11,8 C 3,2 km/h (1 Bft) 98 %
16.09.2014 08:30 12,1 C 11,8 C 12,1 C 90 % 1014,9 hPa 0,0 l/m 0,0 km/h (0 Bft) N 0 0 min 0,000 mm 135 W/m 10,5 C 12,1 C 0,0 km/h (0 Bft) 97 %
16.09.2014 08:40 12,7 C 12,1 C 12,7 C 90 % 1014,9 hPa 0,0 l/m 0,0 km/h (0 Bft) N 0 10 min 0,000 mm 179 W/m 11,1 C 12,7 C 0,0 km/h (0 Bft) 98 %
16.09.2014 08:50 13,2 C 12,7 C 13,2 C 90 % 1014,9 hPa 0,0 l/m 0,0 km/h (0 Bft) N 0 10 min 0,000 mm 200 W/m 11,6 C 13,2 C 0,0 km/h (0 Bft) 97 %
16.09.2014 09:00 13,6 C 13,3 C 13,6 C 90 % 1014,9 hPa 0,0 l/m 0,0 km/h (0 Bft) N 360 10 min 0,076 mm 230 W/m 12,0 C 13,6 C 3,2 km/h (1 Bft) 98 %
16.09.2014 09:10 13,9 C 13,6 C 13,9 C 90 % 1014,9 hPa 0,0 l/m 0,0 km/h (0 Bft) N 360 10 min 0,000 mm 257 W/m 12,3 C 13,9 C 1,6 km/h (1 Bft) 98 %
16.09.2014 09:20 14,3 C 13,9 C 14,3 C 90 % 1014,9 hPa 0,0 l/m 0,0 km/h (0 Bft) N 360 10 min 0,000 mm 283 W/m 12,7 C 14,3 C 1,6 km/h (1 Bft) 97 %
16.09.2014 09:30 14,8 C 14,3 C 14,8 C 90 % 1015,1 hPa 0,0 l/m 0,0 km/h (0 Bft) N 360 10 min 0,000 mm 309 W/m 13,2 C 14,8 C 3,2 km/h (1 Bft) 98 %
16.09.2014 09:40 15,2 C 14,9 C 15,2 C 90 % 1015,0 hPa 0,0 l/m 0,0 km/h (0 Bft) N-NW 337 10 min 0,000 mm 334 W/m 13,6 C 15,2 C 1,6 km/h (1 Bft) 97 %
16.09.2014 09:50 15,8 C 15,2 C 15,8 C 90 % 1015,2 hPa 0,0 l/m 0,0 km/h (0 Bft) N-NW 337 10 min 0,000 mm 359 W/m 14,2 C 15,8 C 1,6 km/h (1 Bft) 98 %
16.09.2014 10:00 16,2 C 15,2 C 16,2 C 90 % 1015,2 hPa 0,0 l/m 0,3 km/h (0 Bft) O 94 10 min 0,153 mm 364 W/m 14,6 C 16,2 C 3,2 km/h (1 Bft) 100 %
16.09.2014 10:10 16,7 C 16,2 C 16,7 C 89 % 1015,2 hPa 0,0 l/m 0,0 km/h (0 Bft) O 87 10 min 0,000 mm 424 W/m 14,9 C 16,7 C 1,6 km/h (1 Bft) 100 %
16.09.2014 10:20 17,3 C 16,7 C 17,3 C 87 % 1015,3 hPa 0,0 l/m 0,3 km/h (0 Bft) S-SW 198 10 min 0,000 mm 455 W/m 15,1 C 17,3 C 4,8 km/h (1 Bft) 100 %
16.09.2014 10:30 17,9 C 17,3 C 17,9 C 86 % 1015,3 hPa 0,0 l/m 0,5 km/h (0 Bft) O-SO 119 10 min 0,000 mm 508 W/m 15,5 C 17,9 C 6,4 km/h (2 Bft) 100 %
16.09.2014 10:40 18,5 C 17,9 C 18,5 C 85 % 1015,3 hPa 0,0 l/m 2,0 km/h (1 Bft) S 183 10 min 0,000 mm 490 W/m 15,9 C 18,5 C 8,0 km/h (2 Bft) 100 %
16.09.2014 10:50 18,9 C 18,5 C 18,9 C 83 % 1015,3 hPa 0,0 l/m 1,2 km/h (1 Bft) S-SO 163 10 min 0,000 mm 512 W/m 15,9 C 18,9 C 6,4 km/h (2 Bft) 100 %
16.09.2014 11:00 19,4 C 18,9 C 19,4 C 81 % 1015,3 hPa 0,0 l/m 0,3 km/h (0 Bft) O 91 10 min 0,254 mm 522 W/m 16,1 C 19,4 C 6,4 km/h (2 Bft) 100 %
16.09.2014 11:10 19,6 C 19,4 C 19,6 C 81 % 1015,2 hPa 0,0 l/m 0,3 km/h (0 Bft) NO 43 10 min 0,000 mm 540 W/m 16,2 C 19,6 C 4,8 km/h (1 Bft) 100 %
16.09.2014 11:20 19,8 C 19,6 C 19,8 C 81 % 1015,1 hPa 0,0 l/m 0,5 km/h (0 Bft) SO 134 10 min 0,000 mm 555 W/m 16,4 C 19,8 C 6,4 km/h (2 Bft) 100 %
16.09.2014 11:30 20,1 C 19,8 C 20,1 C 79 % 1015,2 hPa 0,0 l/m 0,9 km/h (0 Bft) O-NO 74 10 min 0,000 mm 559 W/m 16,3 C 20,1 C 8,0 km/h (2 Bft) 100 %
16.09.2014 11:40 20,4 C 20,1 C 20,4 C 77 % 1015,2 hPa 0,0 l/m 0,5 km/h (0 Bft) SO 135 10 min 0,000 mm 594 W/m 16,2 C 20,4 C 4,8 km/h (1 Bft) 100 %
16.09.2014 11:50 20,6 C 20,4 C 20,6 C 75 % 1015,2 hPa 0,0 l/m 2,0 km/h (1 Bft) SO 134 10 min 0,000 mm 603 W/m 16,0 C 20,6 C 9,7 km/h (2 Bft) 100 %
16.09.2014 12:00 20,7 C 20,5 C 20,7 C 78 % 1015,0 hPa 0,0 l/m 1,0 km/h (0 Bft) S 176 10 min 0,330 mm 594 W/m 16,7 C 20,7 C 8,0 km/h (2 Bft) 100 %
16.09.2014 12:10 21,0 C 20,7 C 21,0 C 76 % 1015,0 hPa 0,0 l/m 0,1 km/h (0 Bft) O 96 10 min 0,000 mm 645 W/m 16,6 C 21,0 C 6,4 km/h (2 Bft) 100 %
16.09.2014 12:20 21,1 C 20,9 C 21,1 C 77 % 1014,9 hPa 0,0 l/m 0,9 km/h (0 Bft) SO 132 10 min 0,000 mm 571 W/m 16,9 C 21,1 C 9,7 km/h (2 Bft) 100 %
16.09.2014 12:30 21,2 C 21,1 C 21,2 C 78 % 1014,9 hPa 0,0 l/m 0,0 km/h (0 Bft) SW 219 10 min 0,000 mm 557 W/m 17,2 C 21,2 C 1,6 km/h (1 Bft) 100 %
16.09.2014 12:40 20,9 C 20,9 C 21,2 C 76 % 1014,9 hPa 0,0 l/m 2,4 km/h (1 Bft) O-SO 107 10 min 0,000 mm 603 W/m 16,5 C 20,9 C 11,3 km/h (2 Bft) 100 %
16.09.2014 12:50 20,9 C 20,8 C 20,9 C 79 % 1014,9 hPa 0,0 l/m 1,0 km/h (0 Bft) O-NO 68 10 min 0,000 mm 557 W/m 17,1 C 20,9 C 8,0 km/h (2 Bft) 100 %
16.09.2014 13:00 21,1 C 20,9 C 21,1 C 77 % 1014,8 hPa 0,0 l/m 0,6 km/h (0 Bft) N-NO 19 10 min 0,355 mm 626 W/m 16,9 C 21,1 C 4,8 km/h (1 Bft) 100 %
16.09.2014 13:10 21,4 C 21,1 C 21,4 C 77 % 1014,7 hPa 0,0 l/m 0,3 km/h (0 Bft) NO 39 10 min 0,000 mm 410 W/m 17,2 C 21,4 C 4,8 km/h (1 Bft) 100 %
16.09.2014 13:20 21,5 C 21,4 C 21,5 C 75 % 1014,6 hPa 0,0 l/m 0,9 km/h (0 Bft) SO 138 10 min 0,000 mm 633 W/m 16,9 C 21,5 C 8,0 km/h (2 Bft) 100 %
16.09.2014 13:30 21,5 C 21,4 C 21,6 C 74 % 1014,5 hPa 0,0 l/m 0,6 km/h (0 Bft) O 80 10 min 0,000 mm 652 W/m 16,7 C 21,5 C 6,4 km/h (2 Bft) 100 %
16.09.2014 13:40 21,7 C 21,5 C 21,7 C 78 % 1014,5 hPa 0,0 l/m 0,2 km/h (0 Bft) W-NW 288 10 min 0,000 mm 652 W/m 17,7 C 21,7 C 3,2 km/h (1 Bft) 100 %
16.09.2014 13:50 21,8 C 21,7 C 21,8 C 75 % 1014,3 hPa 0,0 l/m 2,5 km/h (1 Bft) W 275 10 min 0,000 mm 635 W/m 17,2 C 21,8 C 11,3 km/h (2 Bft) 100 %
16.09.2014 14:00 21,9 C 21,8 C 21,9 C 74 % 1014,3 hPa 0,0 l/m 1,4 km/h (1 Bft) SW 214 10 min 0,381 mm 643 W/m 17,0 C 21,9 C 9,7 km/h (2 Bft) 100 %
16.09.2014 14:10 22,1 C 21,9 C 22,1 C 76 % 1014,3 hPa 0,0 l/m 1,0 km/h (0 Bft) O 95 10 min 0,000 mm 638 W/m 17,7 C 22,1 C 8,0 km/h (2 Bft) 100 %
16.09.2014 14:20 22,2 C 22,1 C 22,2 C 74 % 1014,2 hPa 0,0 l/m 0,2 km/h (0 Bft) SO 144 10 min 0,000 mm 643 W/m 17,3 C 22,2 C 6,4 km/h (2 Bft) 100 %
16.09.2014 14:30 22,3 C 22,2 C 22,3 C 72 % 1014,2 hPa 0,0 l/m 0,7 km/h (0 Bft) O 81 10 min 0,000 mm 622 W/m 17,0 C 22,3 C 8,0 km/h (2 Bft) 99 %
16.09.2014 14:40 22,4 C 22,3 C 22,4 C 73 % 1014,1 hPa 0,0 l/m 0,6 km/h (0 Bft) S 178 10 min 0,000 mm 599 W/m 17,3 C 22,4 C 11,3 km/h (2 Bft) 100 %
16.09.2014 14:50 22,3 C 22,3 C 22,4 C 74 % 1014,1 hPa 0,0 l/m 1,2 km/h (1 Bft) O-SO 110 10 min 0,000 mm 621 W/m 17,4 C 22,3 C 9,7 km/h (2 Bft) 100 %
16.09.2014 15:00 22,6 C 22,3 C 22,6 C 74 % 1014,0 hPa 0,0 l/m 0,2 km/h (0 Bft) SO 124 10 min 0,381 mm 608 W/m 17,7 C 22,6 C 4,8 km/h (1 Bft) 100 %
16.09.2014 15:10 22,7 C 22,6 C 22,7 C 71 % 1013,9 hPa 0,0 l/m 0,0 km/h (0 Bft) NO 49 10 min 0,000 mm 383 W/m 17,2 C 22,7 C 1,6 km/h (1 Bft) 100 %
16.09.2014 15:20 22,6 C 22,6 C 22,7 C 72 % 1013,7 hPa 0,0 l/m 0,9 km/h (0 Bft) O-NO 61 10 min 0,000 mm 540 W/m 17,3 C 22,6 C 8,0 km/h (2 Bft) 100 %
16.09.2014 15:30 22,2 C 22,2 C 22,6 C 70 % 1013,8 hPa 0,0 l/m 0,1 km/h (0 Bft) O-SO 107 0 min 0,000 mm 128 W/m 16,5 C 22,2 C 4,8 km/h (1 Bft) 100 %
16.09.2014 15:40 21,7 C 21,7 C 22,2 C 75 % 1013,7 hPa 0,0 l/m 0,5 km/h (0 Bft) W-SW 240 10 min 0,000 mm 172 W/m 17,1 C 21,7 C 8,0 km/h (2 Bft) 100 %
16.09.2014 15:50 21,8 C 21,7 C 21,8 C 75 % 1013,7 hPa 0,0 l/m 0,4 km/h (0 Bft) S-SO 164 10 min 0,000 mm 504 W/m 17,2 C 21,8 C 4,8 km/h (1 Bft) 99 %
16.09.2014 16:00 21,8 C 21,8 C 21,8 C 75 % 1013,6 hPa 0,0 l/m 0,0 km/h (0 Bft) O-SO 116 10 min 0,204 mm 469 W/m 17,2 C 21,8 C 1,6 km/h (1 Bft) 100 %
16.09.2014 16:10 21,8 C 21,7 C 21,8 C 74 % 1013,6 hPa 0,0 l/m 0,0 km/h (0 Bft) N-NW 339 0 min 0,000 mm 102 W/m 17,0 C 21,8 C 1,6 km/h (1 Bft) 100 %
16.09.2014 16:20 22,0 C 21,8 C 22,0 C 69 % 1013,5 hPa 0,0 l/m 0,2 km/h (0 Bft) O-SO 123 0 min 0,000 mm 76 W/m 16,0 C 22,0 C 6,4 km/h (2 Bft) 100 %
16.09.2014 16:30 22,1 C 22,0 C 22,1 C 70 % 1013,4 hPa 0,0 l/m 0,3 km/h (0 Bft) NW 304 0 min 0,000 mm 63 W/m 16,4 C 22,1 C 4,8 km/h (1 Bft) 100 %
16.09.2014 16:40 22,2 C 22,1 C 22,2 C 70 % 1013,3 hPa 0,0 l/m 0,0 km/h (0 Bft) N-NO 30 0 min 0,000 mm 60 W/m 16,5 C 22,2 C 1,6 km/h (1 Bft) 100 %
16.09.2014 16:50 22,2 C 22,1 C 22,2 C 69 % 1013,2 hPa 0,0 l/m 0,0 km/h (0 Bft) SW 226 0 min 0,000 mm 58 W/m 16,2 C 22,2 C 1,6 km/h (1 Bft) 100 %
16.09.2014 17:00 22,2 C 22,2 C 22,2 C 69 % 1013,3 hPa 0,0 l/m 0,2 km/h (0 Bft) O 84 0 min 0,050 mm 58 W/m 16,2 C 22,2 C 4,8 km/h (1 Bft) 100 %
16.09.2014 17:10 22,1 C 22,1 C 22,2 C 67 % 1013,3 hPa 0,0 l/m 1,3 km/h (1 Bft) SO 130 0 min 0,000 mm 53 W/m 15,7 C 22,1 C 8,0 km/h (2 Bft) 100 %
16.09.2014 17:20 22,0 C 22,0 C 22,1 C 68 % 1013,2 hPa 0,0 l/m 0,1 km/h (0 Bft) S-SO 152 0 min 0,000 mm 56 W/m 15,8 C 22,0 C 4,8 km/h (1 Bft) 100 %
16.09.2014 17:30 21,9 C 21,9 C 22,0 C 72 % 1013,2 hPa 0,0 l/m 0,0 km/h (0 Bft) O-SO 121 0 min 0,000 mm 81 W/m 16,6 C 21,9 C 1,6 km/h (1 Bft) 100 %
16.09.2014 17:40 21,9 C 21,9 C 21,9 C 73 % 1013,2 hPa 0,0 l/m 0,8 km/h (0 Bft) NW 312 0 min 0,000 mm 81 W/m 16,8 C 21,9 C 11,3 km/h (2 Bft) 100 %
16.09.2014 17:50 21,7 C 21,7 C 21,9 C 73 % 1013,3 hPa 0,0 l/m 0,3 km/h (0 Bft) O 86 0 min 0,000 mm 49 W/m 16,6 C 21,7 C 4,8 km/h (1 Bft) 100 %
16.09.2014 18:00 21,3 C 21,3 C 21,7 C 75 % 1013,3 hPa 0,0 l/m 0,2 km/h (0 Bft) NO 53 0 min 0,051 mm 44 W/m 16,7 C 21,3 C 6,4 km/h (2 Bft) 100 %
16.09.2014 18:10 20,9 C 20,9 C 21,3 C 76 % 1013,3 hPa 0,0 l/m 0,1 km/h (0 Bft) O 97 0 min 0,000 mm 42 W/m 16,5 C 20,9 C 3,2 km/h (1 Bft) 99 %
16.09.2014 18:20 20,7 C 20,7 C 20,9 C 77 % 1013,3 hPa 0,0 l/m 0,6 km/h (0 Bft) N-NW 329 0 min 0,000 mm 37 W/m 16,5 C 20,7 C 6,4 km/h (2 Bft) 100 %
16.09.2014 18:30 20,4 C 20,4 C 20,7 C 78 % 1013,3 hPa 0,0 l/m 0,0 km/h (0 Bft) N-NO 24 0 min 0,000 mm 33 W/m 16,4 C 20,4 C 1,6 km/h (1 Bft) 100 %
16.09.2014 18:40 20,2 C 20,2 C 20,4 C 79 % 1013,4 hPa 0,0 l/m 0,5 km/h (0 Bft) N-NO 15 0 min 0,000 mm 30 W/m 16,4 C 20,2 C 4,8 km/h (1 Bft) 100 %
16.09.2014 18:50 19,9 C 19,9 C 20,2 C 80 % 1013,4 hPa 0,0 l/m 0,0 km/h (0 Bft) O 94 0 min 0,000 mm 26 W/m 16,3 C 19,9 C 1,6 km/h (1 Bft) 99 %
16.09.2014 19:00 19,6 C 19,6 C 19,9 C 80 % 1013,3 hPa 0,0 l/m 0,1 km/h (0 Bft) W 269 0 min 0,026 mm 21 W/m 16,1 C 19,6 C 3,2 km/h (1 Bft) 100 %
16.09.2014 19:10 19,3 C 19,3 C 19,6 C 81 % 1013,3 hPa 0,0 l/m 0,0 km/h (0 Bft) SW 221 0 min 0,000 mm 14 W/m 16,0 C 19,3 C 1,6 km/h (1 Bft) 100 %
16.09.2014 19:20 19,0 C 19,0 C 19,3 C 82 % 1013,3 hPa 0,0 l/m 0,0 km/h (0 Bft) SW 229 0 min 0,000 mm 9 W/m 15,9 C 19,0 C 1,6 km/h (1 Bft) 91 %
16.09.2014 19:30 18,6 C 18,6 C 19,0 C 82 % 1013,3 hPa 0,0 l/m 0,0 km/h (0 Bft) S 184 0 min 0,000 mm 5 W/m 15,5 C 18,6 C 1,6 km/h (1 Bft) 100 %
16.09.2014 19:40 18,3 C 18,3 C 18,6 C 83 % 1013,3 hPa 0,0 l/m 0,0 km/h (0 Bft) O 88 0 min 0,000 mm 0 W/m 15,4 C 18,3 C 1,6 km/h (1 Bft) 100 %
16.09.2014 19:50 17,9 C 17,9 C 18,3 C 84 % 1013,4 hPa 0,0 l/m 0,0 km/h (0 Bft) O 86 0 min 0,000 mm 0 W/m 15,2 C 17,9 C 1,6 km/h (1 Bft) 100 %
16.09.2014 20:00 17,6 C 17,6 C 17,9 C 84 % 1013,5 hPa 0,0 l/m 0,0 km/h (0 Bft) O 91 0 min 0,000 mm 0 W/m 14,9 C 17,6 C 1,6 km/h (1 Bft) 100 %
16.09.2014 20:10 17,3 C 17,3 C 17,6 C 85 % 1013,6 hPa 0,0 l/m 0,0 km/h (0 Bft) O 95 0 min 0,000 mm 0 W/m 14,8 C 17,3 C 1,6 km/h (1 Bft) 100 %
16.09.2014 20:20 17,1 C 17,1 C 17,3 C 85 % 1013,7 hPa 0,0 l/m 0,1 km/h (0 Bft) O-SO 112 0 min 0,000 mm 0 W/m 14,6 C 17,1 C 4,8 km/h (1 Bft) 99 %
16.09.2014 20:30 16,8 C 16,8 C 17,1 C 86 % 1013,6 hPa 0,0 l/m 0,2 km/h (0 Bft) O 81 0 min 0,000 mm 0 W/m 14,4 C 16,8 C 4,8 km/h (1 Bft) 100 %
16.09.2014 20:40 16,6 C 16,6 C 16,8 C 87 % 1013,8 hPa 0,0 l/m 0,0 km/h (0 Bft) O 81 0 min 0,000 mm 0 W/m 14,4 C 16,6 C 0,0 km/h (0 Bft) 100 %
16.09.2014 20:50 16,3 C 16,3 C 16,6 C 87 % 1013,8 hPa 0,0 l/m 0,4 km/h (0 Bft) O-NO 65 0 min 0,000 mm 0 W/m 14,1 C 16,3 C 3,2 km/h (1 Bft) 100 %
16.09.2014 21:00 16,1 C 16,1 C 16,3 C 88 % 1013,8 hPa 0,0 l/m 0,0 km/h (0 Bft) O-NO 65 0 min 0,000 mm 0 W/m 14,1 C 16,1 C 0,0 km/h (0 Bft) 100 %
16.09.2014 21:10 15,8 C 15,8 C 16,1 C 89 % 1013,6 hPa 0,0 l/m 0,0 km/h (0 Bft) NO 45 0 min 0,000 mm 0 W/m 14,0 C 15,8 C 3,2 km/h (1 Bft) 98 %
16.09.2014 21:20 15,6 C 15,6 C 15,8 C 89 % 1013,6 hPa 0,0 l/m 0,0 km/h (0 Bft) N 360 0 min 0,000 mm 0 W/m 13,8 C 15,6 C 3,2 km/h (1 Bft) 97 %
16.09.2014 21:30 15,3 C 15,3 C 15,6 C 89 % 1013,7 hPa 0,0 l/m 0,0 km/h (0 Bft) N 360 0 min 0,000 mm 0 W/m 13,5 C 15,3 C 3,2 km/h (1 Bft) 98 %
16.09.2014 21:40 15,1 C 15,1 C 15,3 C 89 % 1013,7 hPa 0,0 l/m 0,0 km/h (0 Bft) NW 315 0 min 0,000 mm 0 W/m 13,3 C 15,1 C 1,6 km/h (1 Bft) 90 %
16.09.2014 21:50 14,8 C 14,8 C 15,1 C 90 % 1013,6 hPa 0,0 l/m 0,0 km/h (0 Bft) NW 315 0 min 0,000 mm 0 W/m 13,2 C 14,8 C 1,6 km/h (1 Bft) 96 %
16.09.2014 22:00 14,7 C 14,7 C 14,8 C 89 % 1013,6 hPa 0,0 l/m 0,0 km/h (0 Bft) N 0 0 min 0,000 mm 0 W/m 12,9 C 14,7 C 0,0 km/h (0 Bft) 97 %
16.09.2014 22:10 14,6 C 14,6 C 14,7 C 89 % 1013,6 hPa 0,0 l/m 0,0 km/h (0 Bft) N-NW 337 0 min 0,000 mm 0 W/m 12,8 C 14,6 C 1,6 km/h (1 Bft) 96 %
16.09.2014 22:20 14,6 C 14,6 C 14,6 C 90 % 1013,6 hPa 0,0 l/m 0,0 km/h (0 Bft) N-NW 337 0 min 0,000 mm 0 W/m 13,0 C 14,6 C 1,6 km/h (1 Bft) 98 %
16.09.2014 22:30 14,5 C 14,5 C 14,6 C 90 % 1013,7 hPa 0,0 l/m 0,0 km/h (0 Bft) N 0 0 min 0,000 mm 0 W/m 12,9 C 14,5 C 0,0 km/h (0 Bft) 97 %
16.09.2014 22:40 14,4 C 14,4 C 14,5 C 90 % 1013,6 hPa 0,0 l/m 0,0 km/h (0 Bft) N-NW 337 0 min 0,000 mm 0 W/m 12,8 C 14,4 C 1,6 km/h (1 Bft) 98 %
16.09.2014 22:50 14,3 C 14,3 C 14,4 C 90 % 1013,7 hPa 0,0 l/m 0,0 km/h (0 Bft) N-NW 337 0 min 0,000 mm 0 W/m 12,7 C 14,3 C 1,6 km/h (1 Bft) 98 %
16.09.2014 23:00 14,2 C 14,1 C 14,3 C 90 % 1013,8 hPa 0,0 l/m 0,0 km/h (0 Bft) N-NW 337 0 min 0,000 mm 0 W/m 12,6 C 14,2 C 1,6 km/h (1 Bft) 97 %
16.09.2014 23:10 14,0 C 14,0 C 14,2 C 90 % 1013,9 hPa 0,0 l/m 0,0 km/h (0 Bft) N-NW 337 0 min 0,000 mm 0 W/m 12,4 C 14,0 C 3,2 km/h (1 Bft) 98 %
16.09.2014 23:20 13,9 C 13,9 C 14,0 C 90 % 1013,8 hPa 0,0 l/m 0,0 km/h (0 Bft) N-NW 337 0 min 0,000 mm 0 W/m 12,3 C 13,9 C 3,2 km/h (1 Bft) 96 %
16.09.2014 23:30 13,7 C 13,7 C 13,9 C 90 % 1013,8 hPa 0,0 l/m 0,0 km/h (0 Bft) N-NW 337 0 min 0,000 mm 0 W/m 12,1 C 13,7 C 1,6 km/h (1 Bft) 98 %
16.09.2014 23:40 13,6 C 13,6 C 13,7 C 90 % 1013,7 hPa 0,0 l/m 0,0 km/h (0 Bft) N-NO 22 0 min 0,000 mm 0 W/m 12,0 C 13,6 C 1,6 km/h (1 Bft) 97 %
16.09.2014 23:50 13,4 C 13,4 C 13,6 C 90 % 1013,7 hPa 0,0 l/m 0,0 km/h (0 Bft) N-NO 22 0 min 0,000 mm 0 W/m 11,8 C 13,4 C 1,6 km/h (1 Bft) 98 %
_ Min-Zeit 04:00 04:00 04:10 17:10 16:50 - 00:00 - - - - - 04:00 04:00 01:20 06:00
Minimum _ 11,4 C 11,4 C 11,4 C 67 % 1013,2 hPa - 0,0 km/h (0 Bft) - - - - - 9,8 C 11,4 C 0,0 km/h (0 Bft) 89 %
_ Max-Zeit 15:10 15:10 15:10 00:00 10:20 00:00 13:50 - - 08:40 14:00 13:30 15:00 15:10 12:40 00:10
Maximum _ 22,7 C 22,6 C 22,7 C 90 % 1015,3 hPa 0,0 l/m 2,5 km/h
W (1 Bft)
- - 10 min 0,381 mm 652 W/m 17,7 C 22,7 C 11,3 km/h
O-SO (2 Bft)
100 %
Durchschnitt _ 16,3 C 16,2 C 16,4 C 84 % 1014,3 hPa #0,0 l/m 0,3 km/h (0 Bft) NW - #7:20 h #2,261 mm 312 W/m 13,5 C 16,3 C 3,6 km/h (1 Bft) 99 %
PRIVATE WETTERSTATION BILLIGHEIM-ALLFELD - www.neckar-odenwald-wetter.de - Holger Sonntag